Date,TemperatureHighF,TemperatureAvgF,TemperatureLowF,DewpointHighF,DewpointAvgF,DewpointLowF,HumidityHigh,HumidityAvg,HumidityLow,PressureMaxIn,PressureMinIn,WindSpeedMaxMPH,WindSpeedAvgMPH,GustSpeedMaxMPH,PrecipitationSumIn
2013-2-1,70,48,32,52,41,30,95,79,51,30.22,30.11,3,0,0,0.00
2013-2-2,61,47,39,51,43,37,96,87,69,30.31,30.22,2,0,0,0.00
2013-2-3,61,48,38,50,43,36,95,85,65,30.26,30.14,3,0,0,0.00
2013-2-4,55,44,38,49,42,36,100,91,78,30.19,30.07,3,0,0,0.00
2013-2-5,64,49,41,51,44,37,94,84,61,30.16,30.04,1,0,0,0.00
2013-2-6,62,44,31,47,38,29,95,80,53,30.21,30.10,2,0,0,0.00
2013-2-7,57,47,38,46,40,36,95,80,48,30.16,30.00,3,0,0,0.00
2013-2-8,60,44,32,40,35,30,95,75,36,30.03,29.93,3,1,0,0.00
2013-2-9,63,44,29,37,32,26,93,67,24,30.11,30.01,4,1,0,0.00
2013-2-10,66,42,28,48,35,26,94,76,39,30.13,30.01,4,0,0,0.00
2013-2-11,68,47,33,43,36,31,94,70,30,30.24,30.09,3,1,0,0.00
2013-2-12,63,46,33,47,40,31,95,83,52,30.37,30.23,3,0,0,0.00
2013-2-13,66,45,31,48,39,29,95,81,49,30.35,30.21,4,1,0,0.00
2013-2-14,70,48,35,53,41,33,95,78,43,30.27,30.15,4,1,0,0.00
2013-2-15,72,50,33,49,41,31,95,75,42,30.27,30.20,4,0,0,0.00
2013-2-16,72,49,36,50,42,34,95,78,37,30.25,30.06,4,1,0,0.00
2013-2-17,65,47,37,47,40,35,95,79,42,30.07,29.97,4,1,0,0.00
2013-2-18,54,44,36,44,39,34,95,84,66,30.03,29.91,2,0,0,0.00
2013-2-19,54,42,34,42,36,31,94,81,51,29.96,29.74,3,1,0,0.00
2013-2-20,61,44,28,39,33,26,94,70,37,30.07,29.86,3,1,0,0.00
2013-2-21,66,48,36,41,36,31,88,66,30,30.18,30.06,3,1,0,0.00
2013-2-22,62,47,32,46,39,30,94,76,40,30.27,30.16,5,1,0,0.00
2013-2-23,62,49,40,42,36,31,92,63,33,30.28,30.17,5,1,0,0.00
2013-2-24,70,50,36,40,34,25,87,60,20,30.28,30.15,3,1,0,0.00
2013-2-25,70,47,32,44,36,21,94,71,16,30.28,30.15,4,1,0,0.00
2013-2-26,73,50,36,41,35,28,92,61,21,30.23,30.14,4,1,0,0.00
2013-2-27,69,48,31,45,38,29,94,72,34,30.36,30.22,5,1,0,0.00
2013-2-28,70,54,43,56,48,41,94,80,60,30.45,30.36,5,1,0,0.00